Flag for Brazil Weather past 2 weeks in Boa Vista, Roraima, Brazil

Now
75 °F

Clear.


Feels Like: 77 °F
Forecast: 73 / 88 °F
Wind: 8 mph from East

Location: Boa Vista Aeropor-To

Current Time: Mar 2, 2015 at 4:06:26 AM

Latest Report: Mar 2, 2015 at 3:00 AM


Visibility: 10 mi

Pressure: 29.83 "Hg

Humidity: 69%

Dew point: 64 °F

Location of Boa VistaLocation

Historic Weather in Boa Vista — Graph

°F

Boa Vista temperature yesterday

Maximum temperature yesterday: 90 °F (at 3:00 PM)
Minimum temperature yesterday: 73 °F (at 5:00 AM)
Average temperature yesterday: 81 °F

Past Weeks' High & Low Weather Summary

 TemperatureHumidityPressure
High100 °F (Feb 28, 2:00 PM)94% (Feb 27, 1:00 AM)30.21 "Hg (Feb 27, 1:00 AM)
Low70 °F (Feb 27, 1:00 AM)31% (Feb 28, 2:00 PM)29.74 "Hg (Feb 18, 6:00 PM)
Average81 °F60%29.86 "Hg
* Reported Feb 15 3:00 AM — Mar 2 3:00 AM, Boa Vista, Weather by CustomWeather, © 2015

Note: Actual official high and low records may vary slightly from our data, if they occured in-between our weather recording intervals... More about our weather records

Advertising

Boa Vista weather history for previous 24 hours

 ConditionsComfort  
Time TempWeatherWind HumidityBarometerVisibility
3:00 AM
Mon, Mar 2
75 °FClear.8 mph69%29.83 "Hg10 mi
2:00 AM75 °FClear.7 mph65%29.86 "Hg10 mi
1:00 AM77 °FClear.8 mph61%29.86 "Hg10 mi
12:00 AM79 °FClear.8 mph58%29.89 "Hg10 mi
11:00 PM
Sun, Mar 1
79 °FPassing clouds.9 mph61%29.89 "HgN/A
10:00 PM81 °FPassing clouds.10 mph62%29.89 "HgN/A
9:00 PM81 °FPassing clouds.10 mph66%29.86 "HgN/A
8:00 PM82 °FPassing clouds.10 mph62%29.83 "HgN/A
7:00 PM82 °FPassing clouds.7 mph58%29.80 "HgN/A
6:00 PM84 °FScattered clouds.6 mph55%29.80 "HgN/A
5:00 PM88 °FScattered showers. Scattered clouds.12 mph49%N/AN/A
4:00 PM88 °FScattered clouds.8 mph46%29.77 "HgN/A
3:00 PM90 °FScattered clouds.13 mph43%29.77 "HgN/A
2:00 PM88 °FPartly sunny.10 mph46%29.83 "HgN/A
1:00 PM88 °FPartly sunny.8 mph46%29.86 "HgN/A
12:00 PM86 °FPartly sunny.14 mph49%29.92 "HgN/A
11:00 AM82 °FPartly sunny.13 mph55%29.95 "HgN/A
10:00 AM82 °FScattered clouds.16 mph58%29.95 "HgN/A
9:00 AM79 °FPassing clouds.16 mph65%29.95 "HgN/A
8:00 AM75 °FSunny.8 mph74%29.95 "Hg10 mi
7:00 AM73 °FSunny.8 mph78%29.92 "Hg10 mi
6:00 AM73 °FClear.9 mph78%29.89 "Hg10 mi
5:00 AM73 °FClear.8 mph83%29.89 "Hg10 mi
4:00 AM75 °FClear.7 mph78%29.89 "Hg10 mi
Weather by CustomWeather, © 2015

See weather overviewHow to use our weather pages